Starlink 2607

operational
NORAD ID: 48391 Int'l Des: 2021-038 Owner: SPXS Country: US Constellation: starlink
LEOCIRCULAR

Starlink 2607について

説明を読み込み中...

リアルタイム位置

3D地球を読み込み中...

次回通過

高度履歴

Altitude vs Time

uPlot chart will show altitude changes over time

軌道要素

1 48391U 21038AQ 26061.15969471 -.00000867 00000-0 -17704-4 0 9992
2 48391 53.1609 7.7586 0001236 99.3942 260.7198 15.29353245267504
Epoch: Mar 2, 2026 • Age: 36 hours

現在のステータス

高度 495.9 km
速度 7.62 km/s
衛星直下点 -50.45°S, 99.98°W
打ち上げ日 May 4, 2021
運用期間 4.8 years
タイプ internet

技術仕様

分類 Payload
質量 260.00 kg
乾燥質量 248.00 kg
総質量 260.00 kg
長さ 0.20 m
直径 2.80 m
スパン 9.00 m
形状 Box + pan
製造者 SPXS
バスタイプ Starlink
フェーズステータス In Orbit
所有者/国 SPXS/US

大規模コンステレーション

Loading constellations...